This is the latest recevied weather packets stored in our database for station/object NC4J. If no packets are shown the sender has not sent any weather packets the latest 10 day(s).
| Time | Temp. | Humidity | Pressure | Rain* | Wind** | Luminosity | Snow |
|---|---|---|---|---|---|---|---|
| 1777915997 | 20.56° C | 35% | 1017 hPa | 0 mm | - | 62 W/m² | - |
| 1777915694 | 20.56° C | 34% | 1017 hPa | 0 mm | - | 56 W/m² | - |
| 1777915391 | 20.56° C | 36% | 1017.1 hPa | 0 mm | - | 63 W/m² | - |
| 1777915086 | 20.56° C | 33% | 1017 hPa | 0 mm | - | 67 W/m² | - |
| 1777914784 | 21.11° C | 31% | 1017.3 hPa | 0 mm | - | 76 W/m² | - |
| 1777914481 | 21.11° C | 34% | 1017.2 hPa | 0 mm | - | 188 W/m² | - |
| 1777914178 | 21.67° C | 34% | 1017.3 hPa | 0 mm | - | 391 W/m² | - |
| 1777913874 | 21.11° C | 35% | 1017.4 hPa | 0 mm | - | 148 W/m² | - |
| 1777913571 | 20° C | 38% | 1017.3 hPa | 0 mm | - | 314 W/m² | - |
| 1777913267 | 20° C | 35% | 1017.6 hPa | 0 mm | - | 451 W/m² | - |
| 1777912964 | 20° C | 36% | 1017.8 hPa | 0 mm | - | 288 W/m² | - |
| 1777912660 | 20° C | 34% | 1017.6 hPa | 0 mm | - | 279 W/m² | - |
| 1777912356 | 19.44° C | 36% | 1017.9 hPa | 0 mm | - | 134 W/m² | - |
| 1777912052 | 19.44° C | 35% | 1017.9 hPa | 0 mm | - | 147 W/m² | - |
| 1777911748 | 19.44° C | 35% | 1017.9 hPa | 0 mm | - | 330 W/m² | - |
| 1777911445 | 19.44° C | 35% | 1018.1 hPa | 0 mm | - | 233 W/m² | - |
| 1777911142 | 19.44° C | 37% | 1018.2 hPa | 0 mm | - | 517 W/m² | - |
| 1777910840 | 18.89° C | 37% | 1018.1 hPa | 0 mm | - | 321 W/m² | - |
| 1777910536 | 18.89° C | 38% | 1018.4 hPa | 0 mm | - | 140 W/m² | - |
| 1777910233 | 18.89° C | 35% | 1018.2 hPa | 0 mm | - | 379 W/m² | - |
| 1777909930 | 18.89° C | 36% | 1018.3 hPa | 0 mm | - | 309 W/m² | - |
| 1777909627 | 18.89° C | 36% | 1018.4 hPa | 0 mm | - | 282 W/m² | - |
| 1777909324 | 18.33° C | 39% | 1018.4 hPa | 0 mm | - | 69 W/m² | - |
| 1777909022 | 17.78° C | 37% | 1018.5 hPa | 0 mm | - | 57 W/m² | - |
| 1777908720 | 17.78° C | 38% | 1018.5 hPa | 0 mm | - | 55 W/m² | - |
* Rain latest hour (hover to see other rain measurements)
** Current wind speed in m/s (hover to see current wind gust speed)